Location: Newark
(40.3667°N, 3.7500°W)
Time: 23:54:30
(UTC+00:00)

OTV 5 (USA 277) - Visible Passes

Search period start: 23 October 2019 00:00
Search period end: 02 November 2019 00:00
Orbit: 310 x 324 km, 54.5° (Epoch: 17 October)

Date Brightness Start Highest point End Pass type
(mag) Time Alt. Az. Time Alt. Az. Time Alt. Az.
27 Oct ? 18:22:01 10° S 18:24:02 19° SE 18:24:02 19° SE visible
28 Oct ? 18:35:47 10° SW 18:38:28 59° SE 18:38:40 57° ESE visible
29 Oct ? 18:50:25 10° WSW 18:53:02 42° NW 18:53:10 41° NNW visible
30 Oct ? 19:05:41 10° W 19:07:33 19° NW 19:07:33 19° NW visible
31 Oct ? 17:45:07 10° SW 17:47:50 75° NW 17:50:34 10° NE visible
01 Nov ? 18:00:04 10° W 18:02:28 27° NW 18:04:52 10° NNE visible
